AST,Max TemperatureF,Mean TemperatureF,Min TemperatureF,Max Dew PointF,MeanDew PointF,Min DewpointF,Max Humidity, Mean Humidity, Min Humidity, Max Sea Level PressureIn, Mean Sea Level PressureIn, Min Sea Level PressureIn, Max VisibilityMiles, Mean VisibilityMiles, Min VisibilityMiles, Max Wind SpeedMPH, Mean Wind SpeedMPH, Max Gust SpeedMPH,PrecipitationIn, CloudCover, Events, WindDirDegrees
2013-11-1,85,80,74,74,72,70,94,80,65,29.94,29.89,29.84,10,9,2,18,5,26,0.23,4,Rain,106
2013-11-2,86,80,73,75,73,71,94,80,65,29.94,29.90,29.85,10,10,10,16,4,23,0.01,3,Rain,144
2013-11-3,87,82,76,74,72,68,87,76,65,29.94,29.89,29.85,10,10,10,15,6,21,T,4,,155
2013-11-4,89,83,77,74,72,70,88,72,55,29.93,29.88,29.83,10,10,10,15,4,17,0.02,3,Rain,175
2013-11-5,89,83,76,75,72,70,82,71,59,29.92,29.87,29.84,10,10,10,15,2,17,0.20,3,Rain,123
2013-11-6,86,81,76,73,72,70,88,75,61,29.93,29.88,29.83,10,10,8,14,2,18,0.12,2,Rain,70
2013-11-7,87,81,74,73,72,70,94,78,61,29.93,29.89,29.85,10,10,10,16,4,20,0.01,2,,76
2013-11-8,86,81,75,75,73,72,87,76,65,29.97,29.92,29.87,10,10,10,16,4,20,0.02,2,Rain,81
2013-11-9,88,82,76,74,73,72,88,75,61,30.01,29.96,29.92,10,10,10,18,6,22,T,3,Rain,97
2013-11-10,88,83,77,74,72,71,85,72,59,30.02,29.98,29.94,10,10,6,22,8,29,0.07,3,Rain,93
2013-11-11,89,83,76,76,73,72,87,75,63,30.04,30.00,29.97,10,9,7,21,8,24,0.46,3,Rain,94
2013-11-12,89,84,78,75,73,70,85,69,52,30.02,29.97,29.91,10,9,5,21,10,28,0.05,3,Rain,97
2013-11-13,90,84,77,73,72,70,85,69,52,30.00,29.95,29.91,10,10,9,22,8,25,0.00,2,,105
2013-11-14,88,83,77,74,72,71,82,71,59,30.03,29.98,29.93,10,10,10,18,7,22,0.04,3,,85
2013-11-15,86,81,75,75,73,72,94,80,65,30.02,29.95,29.89,10,9,2,17,5,21,1.36,5,Rain,99
2013-11-16,84,80,75,75,72,70,94,82,69,29.98,29.92,29.88,10,10,6,18,5,24,0.12,5,Rain,19
2013-11-17,85,81,77,73,68,64,79,67,55,29.92,29.86,29.82,10,10,10,15,8,20,T,4,,22
2013-11-18,85,80,74,72,67,64,87,71,55,29.87,29.81,29.77,10,10,6,17,10,22,0.04,5,Rain,38
2013-11-19,84,79,74,70,68,65,84,71,58,29.93,29.85,29.80,10,10,10,14,6,18,T,4,,95
2013-11-20,86,80,74,72,69,67,84,70,55,30.01,29.96,29.90,10,10,7,17,7,22,0.04,3,Rain,79
2013-11-21,86,80,74,77,73,69,97,86,74,30.04,29.99,29.96,10,9,3,20,9,28,1.21,6,Rain-Thunderstorm,73
2013-11-22,82,78,73,74,71,69,94,80,65,30.00,29.94,29.90,10,10,6,20,8,24,0.30,5,Rain,80
2013-11-23,84,79,74,71,69,67,87,73,58,29.97,29.92,29.88,10,10,10,14,5,18,0.00,2,,65
2013-11-24,85,79,72,73,70,67,87,76,65,29.98,29.92,29.88,10,10,10,20,5,23,0.00,2,,68
2013-11-25,85,80,75,73,72,69,88,77,65,30.02,29.98,29.94,10,10,10,18,7,24,0.05,3,Rain,100
2013-11-26,85,80,75,72,70,69,87,74,61,30.04,29.98,29.94,10,10,10,22,11,26,0.04,3,Rain,89
2013-11-27,84,79,73,72,70,66,93,74,55,29.99,29.94,29.89,10,8,2,23,7,32,1.06,5,Rain,100
2013-11-28,84,79,74,73,71,69,93,79,65,30.03,29.98,29.94,10,10,9,21,9,25,0.03,4,Rain,81
2013-11-29,81,78,75,73,69,64,87,75,62,30.05,29.99,29.95,10,10,9,22,11,26,0.18,4,Rain,63
2013-11-30,79,76,72,73,71,66,100,84,67,30.01,29.95,29.90,10,7,0,23,8,26,3.36,7,Fog-Rain,86